Home > Weather > Lanchow > Past weeks

Flag for China Weather for the Past 2 Weeks in Lanchow, Gansu, China

Now
46 °F

Clear.


Feels Like: 45 °F
Forecast: 46 / 72 °F
Wind: 3 mph from Northwest

Location: Lanzhou / Zhongchuan

Current Time: Apr 30, 2016 at 6:16:05 AM

Latest Report: Apr 30, 2016 at 5:00 AM


Visibility: 10 mi

Pressure: 29.92 "Hg (24.84 "Hg at 1531m altitude)

Humidity: 53%

Dew Point: 30 °F

Location of LanchowLocation

Historic Weather in Lanchow — Graph

°F

Lanchow Temperature Yesterday

Maximum temperature yesterday: 77 °F (at 3:00 PM)
Minimum temperature yesterday: 39 °F (at 4:00 AM)
Average temperature yesterday: 59 °F

High & Low Weather Summary for the Past Weeks

 TemperatureHumidityPressure
High77 °F (Apr 29, 3:00 PM)100% (Apr 16, 10:00 PM)30.36 "Hg (Apr 16, 10:00 PM)
Low30 °F (Apr 16, 10:00 PM)11% (Apr 29, 3:00 PM)29.71 "Hg (Apr 18, 5:00 PM)
Average51 °F51%30.04 "Hg
* Reported Apr 15 4:00 AM — Apr 30 4:00 AM, Lanchow, Weather by CustomWeather, © 2016

Note: Actual official high and low records may vary slightly from our data, if they occured in-between our weather recording intervals... More about our weather records

Advertising

Lanchow Weather History for the Previous 24 Hours

Scroll right to see more
 ConditionsComfort  
Time TempWeatherWind HumidityBarometerVisibility
4:00 AM
Sat, Apr 30
48 °FClear.6 mph54%29.92 "Hg10 mi
3:00 AM50 °FClear.3 mph50%29.92 "Hg10 mi
2:00 AM52 °FClear.3 mph47%29.92 "Hg10 mi
1:00 AM54 °FClear.1 mph41%29.95 "Hg10 mi
12:00 AM61 °FClear.1 mph29%29.95 "Hg10 mi
11:00 PM
Fri, Apr 29
64 °FClear.6 mph22%29.98 "Hg10 mi
10:00 PM61 °FClear.3 mph27%29.95 "Hg10 mi
9:00 PM64 °FClear.6 mph22%29.92 "Hg10 mi
8:00 PM70 °FPassing clouds.6 mph17%29.92 "HgN/A
7:00 PM73 °FPassing clouds.3 mph13%29.89 "HgN/A
6:00 PM75 °FScattered clouds.3 mph12%29.89 "HgN/A
5:00 PM75 °FScattered clouds.6 mph12%29.89 "HgN/A
4:00 PM75 °FScattered clouds.6 mph12%29.92 "HgN/A
3:00 PM77 °FPassing clouds.10 mph11%29.95 "HgN/A
2:00 PM75 °FPassing clouds.8 mph12%29.98 "HgN/A
1:00 PM73 °FPassing clouds.6 mph16%30.01 "HgN/A
12:00 PM70 °FPassing clouds.6 mph20%30.07 "HgN/A
11:00 AM66 °FPassing clouds.6 mph21%30.07 "HgN/A
10:00 AM64 °FPassing clouds.3 mph19%30.09 "HgN/A
9:00 AM59 °FSunny.1 mph27%30.09 "Hg10 mi
8:00 AM52 °FSunny.3 mph38%30.09 "Hg10 mi
7:00 AM41 °FClear.1 mph57%30.07 "Hg10 mi
6:00 AM39 °FClear.6 mph56%30.07 "Hg10 mi
Weather by CustomWeather, © 2016

See weather overviewHow to use our weather pages